Details for Thomas Cook Airlines at EGBB




Go Back


Latest METAR
Local Time

EGBB 240720Z 05009KT 020V080 6000 BKN011 11/08 Q1023

24/05/2018, 08:53:27

Description
Results
Thomas Cook Airlines Logo
Number of Pilots based at EGBB
1 Pilots Based here
Number of Thomas Cook Airlines Flights Departed from EGBB
0 Flights Departed
Number of Thomas Cook Airlines Flights Arrived at EGBB
0 Flights Arrived
Number of Thomas Cook Airlines Schedules Departing from EGBB
29 Schedules
Number of Thomas Cook Airlines Schedules Arriving at EGBB
31 Schedules
Number of Thomas Cook Airlines Schedules Departing from EGBB availible today
5 Schedules Today
Number of Thomas Cook Airlines Schedules Arriving at EGBB availible today
5 Schedules Today
Average Landing Rate at EGBB
-224 fpm
Thomas Cook Airlines Average Landing Rate at EGBB
0 fpm
Total Fuel Purchased at EGBB by Thomas Cook Airlines
0.00 kgs / 0.00 lbs

Pilots Based at EGBB


Pilot ID
Pilot Name
Pilot Rank
No. of Flights
No. of Flying Hours
Dave Butler
27
27.35
Content